DW6282 Weather Reports


Display with metric or nautical units.
time (UTC)temp
F
wind
direction
speed
MPH
gust
MPH
rain 1hr
in
rain 24hr
in
rain mn
in
humidity
%
barometer
mb
20260502163019 69 15 10.0 16.0 0.00 2.13 0.00 74 1018.7
20260502161510 68 16 10.0 16.0 0.00 2.13 0.00 73 1018.4
20260502151605 65 20 8.0 15.0 0.00 2.15 0.00 79 1018.5
20260502123029 56 349 5.0 10.0 0.00 2.31 0.00 92 1016.9
20260502121524 55 25 5.0 10.0 0.00 2.31 0.00 91 1016.6
20260502114528 55 24 5.0 10.0 0.00 2.31 0.00 90 1016.1
20260502113022 56 21 6.0 13.0 0.00 2.31 0.00 89 1015.9
20260502111514 55 11 8.0 13.0 0.00 2.31 0.00 88 1015.7
20260502110015 55 15 6.0 11.0 0.00 2.31 0.00 89 1015.6
20260502104511 55 14 5.0 9.0 0.00 2.31 0.00 89 1015.5
20260502103008 56 2 6.0 10.0 0.00 2.31 0.00 89 1015.1
20260502101506 56 16 5.0 8.0 0.00 2.31 0.00 90 1015.0
20260502070055 57 4 6.0 14.0 0.00 2.31 0.00 97 1013.7
20260502064613 56 22 8.0 14.0 0.00 2.31 0.00 97 1013.7
20260502063057 56 31 5.0 13.0 0.00 2.31 0.00 97 1013.6
20260502061545 56 23 4.0 11.0 0.00 2.31 0.00 97 1013.5
20260502060047 56 17 6.0 15.0 0.00 2.31 0.00 97 1013.5
20260502054541 56 34 4.0 12.0 0.00 2.31 0.00 97 1013.6
20260502053040 56 359 10.0 18.0 0.00 2.31 0.00 97 1013.9
20260502051536 56 13 7.0 14.0 0.00 2.31 0.00 97 1013.8
20260502050034 57 18 8.0 13.0 0.00 2.31 0.00 97 1013.8
20260502044531 56 1 11.0 19.0 0.00 2.31 2.31 97 1013.7
20260502043029 56 27 12.0 17.0 0.00 2.31 2.31 97 1013.7
20260502041533 57 13 7.0 16.0 0.00 2.31 2.31 97 1013.7
20260502040023 57 7 9.0 15.0 0.01 2.31 2.31 97 1013.5
20260502034519 58 8 9.0 13.0 0.02 2.31 2.31 97 1012.9
20260502033026 58 14 7.0 17.0 0.03 2.31 2.31 97 1012.6
20260502031514 58 33 9.0 16.0 0.04 2.31 2.31 97 1012.2
20260502030012 58 15 9.0 16.0 0.02 2.29 2.29 97 1011.7
20260502024514 59 20 9.0 12.0 0.02 2.34 2.29 97 1011.8
20260502023009 59 20 8.0 15.0 0.01 2.33 2.27 97 1011.9
20260502021508 59 8 7.0 13.0 0.01 2.31 2.27 97 1011.8
20260502020006 59 337 9.0 13.0 0.02 2.31 2.27 97 1011.7
20260502014503 59 8 8.0 13.0 0.05 2.37 2.27 97 1011.4
20260502013002 60 2 8.0 14.0 0.12 2.37 2.27 97 1010.9
20260502011501 60 19 8.0 11.0 0.11 2.36 2.25 97 1010.3
20260502010111 59 96 2.0 8.0 0.11 2.35 2.25 97 1009.2
20260502004558 60 13 10.0 18.0 0.08 2.41 2.22 97 1009.3
20260502003057 60 11 10.0 18.0 0.02 2.34 2.15 97 1009.4
20260502001556 60 15 11.0 18.0 0.04 2.34 2.15 97 1008.9
20260502000055 60 44 10.0 17.0 0.03 2.33 2.14 97 1008.8
20260501234553 61 12 11.0 17.0 0.03 2.36 2.14 97 1008.8
20260501233101 61 9 9.0 14.0 0.04 2.35 2.13 97 1008.0
20260501231549 61 6 9.0 15.0 0.04 2.33 2.11 97 1007.9
20260501230048 61 25 5.0 14.0 0.05 2.33 2.11 97 1007.6
20260501224544 62 29 5.0 9.0 0.05 2.33 2.11 97 1008.4
20260501223043 62 30 5.0 11.0 0.05 2.31 2.09 97 1008.5
20260501221542 62 103 8.0 16.0 0.09 2.29 2.06 97 1009.0
20260501220040 62 12 7.0 13.0 0.18 2.27 2.06 97 1008.5
20260501214538 63 13 7.0 11.0 0.22 2.27 2.06 97 1008.4
20260501213037 63 49 2.0 10.0 0.24 2.25 2.04 97 1007.6
20260501211538 63 16 4.0 12.0 0.46 2.19 1.97 97 1008.7
20260501210037 63 32 4.0 12.0 0.44 2.10 1.88 97 1008.1
20260501204545 63 33 5.0 11.0 0.55 2.04 1.83 97 1007.9
20260501203033 63 115 2.0 9.0 0.73 2.02 1.80 97 1007.2
20260501201533 63 322 5.0 16.0 0.49 1.73 1.51 97 1008.0
20260501200034 64 18 10.0 15.0 0.42 1.66 1.44 97 1006.8
20260501194531 63 83 2.0 7.0 0.24 1.48 1.26 97 1007.2
20260501193030 63 28 4.0 14.0 0.05 1.29 1.07 97 1007.0
20260501191538 63 35 3.0 13.0 0.00 1.24 1.02 97 1007.5
20260501190029 64 28 2.0 8.0 0.00 1.24 1.02 97 1007.6
20260501184541 64 22 5.0 8.0 0.00 1.24 1.02 97 1008.3
20260501183034 64 25 4.0 13.0 0.00 1.24 1.02 97 1007.5
20260501181525 64 23 7.0 16.0 0.01 1.24 1.02 97 1007.7
20260501180026 64 30 5.0 12.0 0.28 1.24 1.02 97 1007.8
20260501174525 64 30 4.0 11.0 0.83 1.24 1.02 97 1008.3
20260501173024 63 17 6.0 10.0 0.84 1.24 1.02 97 1008.7
20260501171523 63 9 2.0 9.0 0.83 1.23 1.01 97 1008.8